Time,TemperatureF,DewpointF,PressureIn,WindDirection,WindDirectionDegrees,WindSpeedMPH,WindSpeedGustMPH,Humidity,HourlyPrecipIn,Conditions,Clouds,dailyrainin,SoftwareType,DateUTC
2013-05-27 06:32:00,52.0,50.0,29.67,ESE,113,3.0,-999.0,92,-99.99,,,-99.99,,2013-05-27 12:32:00,
2013-05-27 06:42:00,52.0,50.0,29.67,ESE,113,3.0,-999.0,92,-99.99,,,-99.99,,2013-05-27 12:42:00,
2013-05-27 06:52:00,53.0,51.0,29.67,SSW,210,6.0,-999.0,93,-99.99,,,-99.99,,2013-05-27 12:52:00,
2013-05-27 07:01:00,53.0,51.0,29.67,SW,227,7.0,-999.0,92,-99.99,,,-99.99,,2013-05-27 13:01:00,
2013-05-27 07:11:00,53.0,51.0,29.67,SW,227,7.0,-999.0,92,-99.99,,,-99.99,,2013-05-27 13:11:00,
2013-05-27 07:21:00,54.0,52.0,29.66,SW,219,5.0,-999.0,93,-99.99,,,-99.99,,2013-05-27 13:21:00,
2013-05-27 07:32:00,55.0,53.0,29.66,SW,229,5.0,-999.0,93,-99.99,,,-99.99,,2013-05-27 13:32:00,
2013-05-27 07:42:00,55.0,53.0,29.66,SW,229,5.0,-999.0,93,-99.99,,,-99.99,,2013-05-27 13:42:00,
2013-05-27 07:52:00,55.0,53.0,29.66,West,263,5.0,-999.0,93,-99.99,,,-99.99,,2013-05-27 13:52:00,
2013-05-27 08:02:00,56.0,54.0,29.65,SW,214,5.0,-999.0,92,-99.99,,,-99.99,,2013-05-27 14:02:00,
2013-05-27 08:11:00,56.0,54.0,29.65,SW,214,5.0,-999.0,92,-99.99,,,-99.99,,2013-05-27 14:11:00,
2013-05-27 08:21:00,56.0,54.0,29.66,SSW,196,6.0,-999.0,92,-99.99,,,-99.99,,2013-05-27 14:21:00,
2013-05-27 08:32:00,57.0,54.0,29.66,SSW,200,7.0,-999.0,90,-99.99,,,-99.99,,2013-05-27 14:32:00,
2013-05-27 08:42:00,57.0,54.0,29.66,SSW,200,7.0,-999.0,90,-99.99,,,-99.99,,2013-05-27 14:42:00,
2013-05-27 08:51:00,58.0,54.0,29.66,SSW,205,5.0,-999.0,88,-99.99,,,-99.99,,2013-05-27 14:51:00,
2013-05-27 09:01:00,59.0,54.0,29.66,WSW,240,3.0,-999.0,84,-99.99,,,-99.99,,2013-05-27 15:01:00,
2013-05-27 09:11:00,59.0,54.0,29.66,WSW,240,3.0,-999.0,84,-99.99,,,-99.99,,2013-05-27 15:11:00,
2013-05-27 09:21:00,59.0,54.0,29.66,WSW,254,4.0,-999.0,84,-99.99,,,-99.99,,2013-05-27 15:21:00,
2013-05-27 09:33:00,60.0,55.0,29.66,West,261,3.0,-999.0,84,-99.99,,,-99.99,,2013-05-27 15:33:00,
2013-05-27 09:43:00,60.0,55.0,29.66,West,261,3.0,-999.0,84,-99.99,,,-99.99,,2013-05-27 15:43:00,
2013-05-27 09:53:00,61.0,55.0,29.65,West,259,2.0,-999.0,81,-99.99,,,-99.99,,2013-05-27 15:53:00,
2013-05-27 10:03:00,62.0,55.0,29.65,WNW,285,4.0,-999.0,79,-99.99,,,-99.99,,2013-05-27 16:03:00,
2013-05-27 10:12:00,62.0,55.0,29.65,WNW,285,4.0,-999.0,79,-99.99,,,-99.99,,2013-05-27 16:12:00,
2013-05-27 10:23:00,63.0,56.0,29.65,WSW,249,5.0,-999.0,77,-99.99,,,-99.99,,2013-05-27 16:23:00,
2013-05-27 10:33:00,64.0,54.0,29.65,West,275,5.0,-999.0,71,-99.99,,,-99.99,,2013-05-27 16:33:00,
2013-05-27 10:42:00,64.0,54.0,29.65,West,275,5.0,-999.0,71,-99.99,,,-99.99,,2013-05-27 16:42:00,
2013-05-27 10:52:00,64.0,55.0,29.65,WNW,297,3.0,-999.0,73,-99.99,,,-99.99,,2013-05-27 16:52:00,
2013-05-27 11:02:00,64.0,55.0,29.65,NW,310,4.0,-999.0,73,-99.99,,,-99.99,,2013-05-27 17:02:00,
2013-05-27 11:11:00,64.0,55.0,29.65,NW,310,4.0,-999.0,73,-99.99,,,-99.99,,2013-05-27 17:11:00,
2013-05-27 11:22:00,63.0,55.0,29.64,NNW,331,6.0,-999.0,75,-99.99,,,-99.99,,2013-05-27 17:22:00,
2013-05-27 11:32:00,63.0,55.0,29.63,NW,314,5.0,-999.0,74,-99.99,,,-99.99,,2013-05-27 17:32:00,
2013-05-27 11:43:00,63.0,55.0,29.63,NW,314,5.0,-999.0,74,-99.99,,,-99.99,,2013-05-27 17:43:00,
2013-05-27 11:52:00,64.0,55.0,29.64,NW,314,2.0,-999.0,73,-99.99,,,-99.99,,2013-05-27 17:52:00,
2013-05-27 12:02:00,64.0,54.0,29.64,NW,315,4.0,-999.0,71,-99.99,,,-99.99,,2013-05-27 18:02:00,
2013-05-27 12:11:00,64.0,54.0,29.64,NW,315,4.0,-999.0,71,-99.99,,,-99.99,,2013-05-27 18:11:00,
2013-05-27 12:22:00,64.0,54.0,29.64,WNW,295,3.0,-999.0,70,-99.99,,,-99.99,,2013-05-27 18:22:00,
2013-05-27 12:32:00,65.0,54.0,29.63,WNW,295,2.0,-999.0,68,-99.99,,,-99.99,,2013-05-27 18:32:00,
2013-05-27 12:42:00,65.0,54.0,29.63,WNW,295,2.0,-999.0,68,-99.99,,,-99.99,,2013-05-27 18:42:00,
2013-05-27 12:52:00,65.0,55.0,29.61,WNW,303,4.0,-999.0,69,-99.99,,,-99.99,,2013-05-27 18:52:00,
2013-05-27 13:01:00,65.0,55.0,29.63,WNW,303,2.0,-999.0,70,-99.99,,,-99.99,,2013-05-27 19:01:00,
2013-05-27 13:11:00,65.0,55.0,29.63,WNW,303,2.0,-999.0,70,-99.99,,,-99.99,,2013-05-27 19:11:00,
2013-05-27 13:21:00,65.0,55.0,29.62,WNW,302,5.0,-999.0,71,-99.99,,,-99.99,,2013-05-27 19:21:00,
2013-05-27 13:32:00,64.0,54.0,29.61,NW,308,5.0,-999.0,70,-99.99,,,-99.99,,2013-05-27 19:32:00,
2013-05-27 13:42:00,64.0,54.0,29.61,NW,308,5.0,-999.0,70,-99.99,,,-99.99,,2013-05-27 19:42:00,
2013-05-27 13:52:00,64.0,54.0,29.61,WNW,292,6.0,-999.0,69,-99.99,,,-99.99,,2013-05-27 19:52:00,
2013-05-27 14:01:00,64.0,54.0,29.62,WNW,290,5.0,-999.0,69,-99.99,,,-99.99,,2013-05-27 20:01:00,
2013-05-27 14:11:00,64.0,54.0,29.62,WNW,290,5.0,-999.0,69,-99.99,,,-99.99,,2013-05-27 20:11:00,
2013-05-27 14:22:00,63.0,55.0,29.62,West,278,4.0,-999.0,74,-99.99,,,-99.99,,2013-05-27 20:22:00,
2013-05-27 14:32:00,63.0,55.0,29.63,West,267,6.0,-999.0,76,-99.99,,,-99.99,,2013-05-27 20:32:00,
2013-05-27 14:42:00,62.0,56.0,29.63,WSW,254,7.0,-999.0,80,-99.99,,,-99.99,,2013-05-27 20:42:00,
2013-05-27 14:52:00,62.0,56.0,29.63,WSW,254,7.0,-999.0,80,-99.99,,,-99.99,,2013-05-27 20:52:00,
2013-05-27 15:01:00,60.0,55.0,29.63,WSW,246,7.0,-999.0,83,-99.99,,,-99.99,,2013-05-27 21:01:00,
2013-05-27 15:12:00,60.0,55.0,29.63,WSW,246,7.0,-999.0,83,-99.99,,,-99.99,,2013-05-27 21:12:00,
2013-05-27 15:21:00,59.0,54.0,29.62,WSW,247,5.0,-999.0,84,-99.99,,,-99.99,,2013-05-27 21:21:00,
2013-05-27 15:33:00,59.0,55.0,29.60,WSW,251,4.0,-999.0,86,-99.99,,,-99.99,,2013-05-27 21:33:00,
2013-05-27 15:43:00,59.0,55.0,29.59,NW,311,5.0,-999.0,87,-99.99,,,-99.99,,2013-05-27 21:43:00,
2013-05-27 15:53:00,59.0,55.0,29.59,NW,311,5.0,-999.0,87,-99.99,,,-99.99,,2013-05-27 21:53:00,
2013-05-27 16:02:00,59.0,55.0,29.58,NW,313,5.0,-999.0,87,-99.99,,,-99.99,,2013-05-27 22:02:00,
2013-05-27 16:12:00,59.0,55.0,29.58,NW,313,5.0,-999.0,87,-99.99,,,-99.99,,2013-05-27 22:12:00,
2013-05-27 16:22:00,59.0,55.0,29.58,NNW,339,6.0,-999.0,87,-99.99,,,-99.99,,2013-05-27 22:22:00,
2013-05-27 16:33:00,60.0,56.0,29.58,NE,36,7.0,-999.0,88,-99.99,,,-99.99,,2013-05-27 22:33:00,
2013-05-27 16:42:00,60.0,56.0,29.58,NE,36,7.0,-999.0,88,-99.99,,,-99.99,,2013-05-27 22:42:00,
2013-05-27 16:52:00,61.0,56.0,29.59,NE,53,7.0,-999.0,85,-99.99,,,-99.99,,2013-05-27 22:52:00,
2013-05-27 17:02:00,61.0,56.0,29.59,East,94,6.0,-999.0,83,-99.99,,,-99.99,,2013-05-27 23:02:00,
2013-05-27 17:12:00,61.0,56.0,29.59,East,94,6.0,-999.0,83,-99.99,,,-99.99,,2013-05-27 23:12:00,
2013-05-27 17:22:00,61.0,56.0,29.59,East,101,5.0,-999.0,83,-99.99,,,-99.99,,2013-05-27 23:22:00,
2013-05-27 17:32:00,61.0,55.0,29.58,ESE,105,5.0,-999.0,82,-99.99,,,-99.99,,2013-05-27 23:32:00,
2013-05-27 17:42:00,61.0,55.0,29.58,ESE,105,5.0,-999.0,82,-99.99,,,-99.99,,2013-05-27 23:42:00,
2013-05-27 17:52:00,61.0,55.0,29.58,ESE,105,1.0,-999.0,82,-99.99,,,-99.99,,2013-05-27 23:52:00,
2013-05-27 18:01:00,61.0,55.0,29.59,ESE,105,2.0,-999.0,82,-99.99,,,-99.99,,2013-05-28 00:01:00,
2013-05-27 18:11:00,61.0,55.0,29.59,ESE,105,2.0,-999.0,82,-99.99,,,-99.99,,2013-05-28 00:11:00,
2013-05-27 18:21:00,61.0,55.0,29.59,ESE,105,0.0,-999.0,80,-99.99,,,-99.99,,2013-05-28 00:21:00,
2013-05-27 18:31:00,61.0,55.0,29.59,ESE,105,0.0,-999.0,80,-99.99,,,-99.99,,2013-05-28 00:31:00,
2013-05-27 18:41:00,61.0,55.0,29.59,ESE,105,0.0,-999.0,80,-99.99,,,-99.99,,2013-05-28 00:41:00,
2013-05-27 18:52:00,61.0,55.0,29.59,ESE,105,1.0,-999.0,80,-99.99,,,-99.99,,2013-05-28 00:52:00,
2013-05-27 19:01:00,61.0,55.0,29.59,ESE,105,0.0,-999.0,80,-99.99,,,-99.99,,2013-05-28 01:01:00,
2013-05-27 19:11:00,61.0,55.0,29.59,ESE,105,0.0,-999.0,80,-99.99,,,-99.99,,2013-05-28 01:11:00,
2013-05-27 19:21:00,61.0,55.0,29.59,ESE,105,0.0,-999.0,82,-99.99,,,-99.99,,2013-05-28 01:21:00,
2013-05-27 19:31:00,60.0,55.0,29.59,ESE,105,0.0,-999.0,83,-99.99,,,-99.99,,2013-05-28 01:31:00,
2013-05-27 19:41:00,60.0,55.0,29.59,ESE,105,0.0,-999.0,83,-99.99,,,-99.99,,2013-05-28 01:41:00,
2013-05-27 19:52:00,60.0,55.0,29.58,ESE,105,3.0,-999.0,84,-99.99,,,-99.99,,2013-05-28 01:52:00,
2013-05-27 20:02:00,60.0,55.0,29.57,ESE,105,1.0,-999.0,84,-99.99,,,-99.99,,2013-05-28 02:02:00,
2013-05-27 20:11:00,60.0,55.0,29.57,ESE,105,1.0,-999.0,84,-99.99,,,-99.99,,2013-05-28 02:11:00,
2013-05-27 20:21:00,60.0,55.0,29.57,ESE,105,0.0,-999.0,85,-99.99,,,-99.99,,2013-05-28 02:21:00,